DMSP 5D-2 F13 DEB, 42295

Orbit data source: Space-Track

DMSP 5D-2 F13 DEB, 42295 is space debris in SSO originally from a launch on Fri, 24 Mar 1995 UTC launched from the Air Force Western Test Range (AFWTR). Debris objects in space refer to the collection of defunct objects orbiting the Earth. Examples of debris include non-operational satellites, rocket bodies, and fragments generated from explosions, collisions, or faulty payload assembly.

Loading next visibility...
Identifier
42295, 1995-015HM
Orbit
SSO
Country
Flag of USUS
Related business
Manufacturer
Unknown
Mission
Spacecraft
Bus & Motor
Unknown
Mass
Unknown
Launch date (UTC)
1995-03-24 (31 years ago)
Launch vehicle
Unknown
Launch site
Air Force Western Test Range (AFWTR)
Object type
Payload
Rocket body
Debris
Shape & HBR
Unknown shape, 0.1 m
Radar Cross Section
Small (<0.1 m²)

Expand to show TLE details & history
Last TLE update: 21 hours ago

TLE from 21 hours ago
0 DMSP 5D-2 F13 DEB
1 42295U 95015HM  25286.59608020  .00044351  00000-0  77020-2 0  9990
2 42295  98.8513 333.9070 0020706 126.7526 233.5582 14.67841890539796
Epoch: 2025-10-13T14:18Z
TLE epoch observation values (Epoch: 2025-10-13T14:18:21.329Z)
Latitude
0.00006°
Longitude
96.92153°
Altitude
679.629 km
Speed
7.512 km/s
True Right ascension
22h 15m 37s
True Declination
0° 00' 00"
Sunlit
Object was in full shadow at epoch
Visualization orbit readout
Latitude
Unknown
Longitude
Unknown
Altitude
Unknown
Speed
Unknown
Apparent Right ascension
Unknown
Apparent Declination
Unknown
Sunlit
N/A
Visualization observer readout
Local Sidereal Time
05:45:07
Azimuth
Unknown
Elevation
Unknown
Doppler factor
Unknown
Orbital elements
Apogee altitude
679.652 km
Perigee altitude
650.484 km
Semi-major axis
7,043.205 km
Eccentricity
0.00207
Inclination
98.8513°
RAAN
333.907°
Arg. of periapsis
126.7526°
True anomaly
233.36762°
Mean anomaly
233.5582°
Eccentric anomaly
233.46288°
Mean motion
3.67187 °/min
Orbital period
98.04 mins
BSTAR
0.007702

Documentation

Showing up to 5 results
|